www.pogodaiklimat.ru

Погода и климат >> Архив погоды >> Узбекистан >> Тахиаташ


ПОГОДА в Тахиаташе

  • Прогноз погоды в Тахиаташе
  • Монитор погоды в Тахиаташе

АРХИВ ПОГОДЫ в Тахиаташе

Время (UTC), дата Ветер
(напр.,м/с)
 
Видим.   Явления Облачность Т
(С)
Тd
(С)
f
(%)
Тe
(С)
Тes
(С)
Комфортность P
(гПа)
Po
(гПа)
Тmin
(С)
Tmax
(С)
R
(мм)
R24
(мм)
S
(см)
18 16.08 штиль 0 1000 м ясно +20.4 +12.8 62 +22 +22 комфорт 1015.1 1006.1 +30.1
21 16.08 штиль 0 1000 м ясно +18.0 +14.6 81 +18 +18 1015.2 1006.0
00 17.08 штиль 0 1000 м ясно +16.6 +13.6 82 +16 +16 1015.0 1005.8
03 17.08 С 1 10 км ясно +20.8 +14.1 65 +25 +27 комфорт 1014.8 1005.8
06 17.08 С 1 10 км ясно +29.6 +14.0 39 +32 +47 душно 1014.8 1006.1 +16.0
09 17.08 С 2 10 км ясно +31.7 +13.7 33 +33 +49 жарко 1013.6 1004.9
12 17.08 С 4 10 км ясно +32.2 +13.3 32 +33 +37 жарко 1012.5 1003.8
15 17.08 С 1 10 км ясно +29.0 +12.7 37 +30 +30 жарко 1013.0 1004.3 +33.2
18 17.08 штиль 0 1000 м ясно +23.3 +13.7 55 +27 +27 душно 1013.7 1004.7 +33.2
00 18.08 СВ 1 1000 м ясно +20.9 +11.5 55 +24 +24 комфорт 1014.3 1005.3
03 18.08 СВ 1 10 км ясно +23.0 +12.7 52 +26 +29 жарко 1015.6 1006.6
06 18.08 СВ 1 10 км ясно +31.8 +15.1 36 +34 +49 душно 1015.8 1007.1 +20.1
09 18.08 ЮВ 4 10 км ясно +33.8 +13.6 30 +35 +45 очень
жарко
1015.5 1006.8
12 18.08 З 2 10 км ясно +34.0 +13.5 29 +35 +40 очень
жарко
1015.1 1006.4
15 18.08 штиль 0 10 км ясно +30.4 +12.7 34 +31 +31 жарко 1015.3 1006.6 +35.5
18 18.08 штиль 0 1000 м ясно +24.7 +13.2 49 +27 +27 жарко 1016.2 1007.2 +35.5
21 18.08 СВ 3 1000 м ясно +24.2 +13.0 50 +26 +26 жарко 1016.5 1007.5
00 19.08 СВ 2 1000 м ясно +22.8 +11.2 48 +25 +25 комфорт 1017.3 1008.3
03 19.08 СВ 1 10 км ясно +24.3 +12.5 48 +26 +29 жарко 1018.8 1009.8
06 19.08 В 2 10 км ясно +32.0 +14.6 35 +34 +47 душно 1018.7 1010.0 +22.0
09 19.08 В 3 10 км ясно +33.9 +12.8 28 +34 +47 очень
жарко
1018.1 1009.4
12 19.08 В 3 10 км ясно +34.6 +12.5 26 +35 +39 очень
жарко
1016.7 1008.0
15 19.08 штиль 0 50 км ?/? +31.0 +12.2 32 +32 +32 жарко 1016.9 1008.2 +35.3
18 19.08 С 1 1000 м ясно +27.8 +14.4 44 +30 +30 жарко 1017.9 1009.2 +35.3
21 19.08 С 1 1000 м ясно +25.8 +12.1 42 +27 +27 жарко 1017.7 1008.8
00 20.08 СВ 1 1000 м ясно +23.2 +10.3 44 +25 +25 комфорт 1018.0 1009.0
03 20.08 С 1 10 км ясно +24.0 +11.2 45 +25 +28 комфорт 1019.3 1010.3
06 20.08 СВ 2 10 км ясно +32.9 +15.9 36 +35 +48 душно 1020.3 1011.6 +22.0
09 20.08 В 3 10 км ясно +36.6 +16.7 31 +39 +52 опасность
солнечного
удара
1018.8 1010.2
12 20.08 СВ 3 10 км ясно +37.0 +16.9 31 +40 +44 очень
душно
1017.3 1008.7
15 20.08 СВ 2 10 км ясно +30.9 +15.0 38 +33 +33 душно 1016.6 1007.9 +37.4
18 20.08 С 1 1000 м ясно +26.4 +15.2 50 +29 +29 жарко 1016.9 1008.0 +37.4
21 20.08 С 1 1000 м ясно +23.0 +14.1 57 +26 +26 жарко 1016.4 1007.4
00 21.08 СВ 1 1000 м ясно +22.9 +14.7 60 +27 +27 душно 1015.7 1006.7
03 21.08 СВ 1 10 км ясно +24.6 +15.3 56 +28 +30 душно 1016.2 1007.3
06 21.08 СЗ 1 10 км ясно +32.9 +18.9 44 +38 +53 опасность
солнечного
удара
1016.1 1007.4 +22.2
09 21.08 СЗ 4 10 км ясно +35.5 +18.8 37 +40 +50 очень
душно
1015.1 1006.5
12 21.08 СЗ 4 10 км ясно +37.4 +18.5 33 +41 +45 опасность
перегрева
1012.9 1004.5
15 21.08 СВ 1 10 км ясно +32.6 +16.5 38 +36 +36 очень
душно
1013.3 1004.6 +38.4
18 21.08 штиль 0 1000 м ясно +26.7 +18.1 59 +31 +31 душно 1013.8 1004.9 +38.4
21 21.08 штиль 0 1000 м ясно +24.8 +16.4 60 +28 +28 жарко 1012.8 1003.9
00 22.08 штиль 0 1000 м ясно +22.0 +17.1 74 +26 +26 душно 1012.9 1003.9
03 22.08 штиль 0 10 км ясно +24.4 +18.4 69 +29 +32 душно 1014.1 1005.2
06 22.08 штиль 0 10 км 3/0
[Ac trans]
+34.4 +21.7 48 +43 +56 опасность
перегрева
1012.8 1004.2 +21.2
09 22.08 штиль 0 10 км 3/3 1000 м
[Cu hum Ac trans]
+36.2 +21.1 42 +44 +58 опасность
перегрева
1012.0 1003.4
12 22.08 СЗ 1 10 км 3/3 1000 м
[Cu hum Ac trans]
+37.8 +19.0 33 +42 +46 опасность
перегрева
1011.0 1002.7
15 22.08 штиль 0 10 км 3/0
[Ac trans]
+32.0 +19.6 48 +38 +38 очень
душно
1011.0 1002.4 +38.6
21 22.08 СВ 3 1000 м ясно +27.9 +16.1 49 +31 +31 душно 1012.4 1003.7

 

Местоположение метеостанции Тахиаташ (Каракалпакстан, Узбекистан): широта 42.40 долгота 59.60 высота над уровнем моря 77 м.

В архиве по умолчанию представлена погода в Тахиаташе за последнюю неделю. Архивные данные за месяц целиком и за предыдущие месяцы, начиная с января 2011 года, Вы можете получить, выбрав интересующий диапазон дат из раскрывающегося списка и нажав кнопку "Ввод!".


*Определитесь, кто Вы:
робот инопланетянин человек

Внимание! Время в таблицах - всемирное. Для получения местного времени необходимо прибавить поправку, которая равна 5 ч.

Смотрите также архив погоды в соседних городах и на ближайших метеорологических станциях:

Погода в Нукусе (Каракалпакстан, Узбекистан) (6 км)
Погода в Тахтакупыре (Каракалпакстан, Узбекистан) (9 км)
Погода в Кенеургенче (Дашогузский велаят, Туркменистан) (40 км)
Погода в Чимбае (Каракалпакстан, Узбекистан) (64 км)
Погода в Дашогузе (Дашогузский велаят, Туркменистан) (75 км)
Погода в Гурлене (Хорезмская область, Узбекистан) (89 км)
Погода в Кунграде (Каракалпакстан, Узбекистан) (93 км)
Погода в Шах-Сенеме (Дашогузский велаят, Туркменистан) (117 км)
Погода в Ургенче (Хорезмская область, Узбекистан) (122 км)
Погода в Хиве (Хорезмская область, Узбекистан) (129 км)

Пояснения к столбцам:

Ветер - указаны скорость ветра в м/с - средняя за 10 мин, порывы в срок и между сроками (в фигурных скобках) и направление, откуда дует ветер: С - северный, СВ - северо-восточный, В - восточный, ЮВ - юго-восточный, Ю - южный, ЮЗ - юго-западный, З - западный, СЗ - северо-западный.
Видимость - горизонтальная дальность видимости в метрах или километрах. При видимости от 1 до 10 км при отсутствии осадков обычно наблюдается дымка, при ухудшении видимости до 1 км и менее - туман. В сухую погоду видимость может ухудшаться дымом, пылью или мглою.
Явления - указаны атмосферные явления, наблюдавшиеся в срок или в последний час перед сроком; фигурными скобками обозначены явления, наблюдавшиеся между сроками (за 1-3 часа до срока); квадратными скобками обозначены град или гололедные отложения с указанием их диаметра в мм.
Облачность - указаны через наклонную черту общая и нижняя облачность в баллах и высота нижней границы облаков в метрах; квадратными скобками обозначены формы облаков: Ci - перистые, Cs - перисто-слоистые, Cc - перисто-кучевые, Ac - высококучевые, As - высокослоистые, Sc - слоисто-кучевые, Ns - слоисто-дождевые, Cu - кучевые, Cb - кучево-дождевые. Подробнее классификацию облаков см. в Атласе облаков (PDF).
T - Температура воздуха - температура, измеренная на высоте 2 м над землей.
Td - Температура точки росы - температура, при понижении до которой содержащийся в воздухе водяной пар достигнет насыщения.
f - Относительная влажность воздуха - влажноcть воздуха, измеренная на высоте 2 м над землей.
Te - Эффективная температура - температура, которую ощущает одетый по сезону человек в тени. Характеристика душности погоды. При расчете учитывается влияние влажности воздуха и скорости ветра на теплоощущения человека.
Tes - Эффективная температура на солнце - температура, которую ощущает человек, с поправкой на солнечный нагрев. Характеристика знойности погоды. Зависит от высоты солнца над горизонтом, облачности и скорости ветра. Ночью, в пасмурную погоду, а также при ветре 12 м/с и более поправка равна нулю.
P - Атмосферное давление - приведенное к уровню моря атмосферное давление.
Po - Атмосферное давление - измеренное на уровне метеостанции атмосферное давление.
Tmin - Минимальная температура - минимум температуры воздуха на высоте 2 м над землей.
Tmax - Максимальная температура - максимум температуры воздуха на высоте 2 м над землей.
R - Количество осадков - Количество выпавших осадков за период времени, мм. При наведении курсора мыши на число - период времени, за который выпало указанное количество осадков.
R24 - Количество осадков - Количество выпавших осадков за 24 часа, мм.
S - Снежный покров - Высота снежного покрова, см. При наведении курсора мыши на число - состояние снежного покрова и степень покрытия местности в баллах.